Find Starlink 32931

NORAD ID: 63199 Int'l Des: 2025-048 Owner: SPXS Country: US Constellation: starlink operational
LEOCIRCULAR

当前视图

正在加载3D地球...

About Starlink 32931

Starlink 32931 (NORAD 63199) is a starlink constellation satellite (v2 mini) launched Mar 13, 2025 by SPXS of US. It operates in LEO, CIRCULAR orbit with a mass of 730.00 kg.

即将过境

Passes for default location (London). Set your location on the main map for personalized predictions.

高度历史

Loading altitude history...

两行轨道根数

1 63199U 25048S 26234.97541170 .00013648 00000-0 50441-3 0 9997
2 63199 43.0008 226.2074 0001489 268.0164 92.0517 15.27589345 82527
Epoch: Aug 22, 2026 • Age: 26 hours

当前状态

高度 483.5 km
远地点 / 近地点 N/A
速度 7.63 km/s
星下点 24.97°N, 21°E
发射日期 Mar 13, 2025
运行时间 1.4 years
类型 internet

技术详情

分类 Payload
质量 730.00 kg
干质量 700.00 kg
总质量 730.00 kg
长度 0.30 m
直径 4.10 m
跨度 29.00 m
形状 Box + pan
制造商 SPXS
平台类型 Starlink V2M
阶段状态 In Orbit
所有者/国家 SPXS/US

Most Searched